Tracking 20092 objects as of 14-Dec-2019
HD Live streaming from Space Station
objects crossing your sky now

FENGYUN 1C DEB

Track FENGYUN 1C DEB now!
10-day predictions


NORAD ID: 31348
Int'l Code: 1999-025BRC
Perigee: 800.5 km
Apogee: 855.4 km
Inclination: 99.2 °
Period: 101.3 minutes
Semi major axis: 7198 km
RCS: 0.0184 m2 (small)
Launch date: May 10, 1999
Source: People's Republic of China (PRC)
Launch site: Taiyaun Space Center, China (TSC)

Note: This is SATELLITE DEBRIS
aabbcc
Your satellite tracking list
Your tracking list is empty




NASA's NSSDC Master Catalog

Two Line Element Set (TLE):
1 31348U 99025BRC 19346.35910942 +.00000267 +00000-0 +14347-3 0  9997
2 31348 099.2243 177.4815 0038167 232.5691 250.2845 14.21345213650278
Source of the keplerian elements: AFSPC